Date String (YYYY-MM-DD hh:mm:ss) UTC,Instrument flags,Ambient pressure (hPa),Sample flow (lpm),Bypass flow (lpm),Sample temperature (°C),Ambient temperature (°C),ASC tube jacket temperature (°C),LED temperature (°C),Box temperature (°C),Sample RH (%),Span deviation,Mass concentration (μg/m³),Mass concentration (μg/m³),Mass concentration (μg/m³)
DateTimeUTC,F1_M11,P_M11,Q1_M11,Q2_M11,T1_M11,T2_M11,T3_M11,T4_M11,T5_M11,U1_M11,ZSPAN_M11,X0_M11,X2_M11,X1_M11
2023-01-28 12:00:00,,0816.3,4.98,0.00,22.2,20.6,00.0,31.1,24.0,10.8,0000.0,0008.64,0004.32,0004.04
2023-01-28 12:01:00,,0816.2,4.98,0.00,22.2,20.5,00.0,31.1,23.9,10.8,0000.0,0008.54,0004.26,0004.01
2023-01-28 12:02:00,,0816.2,4.98,0.00,22.2,20.4,00.0,31.1,23.9,10.9,0000.0,0007.92,0004.22,0003.99
2023-01-28 12:03:00,,0816.3,5.00,0.00,22.1,20.4,00.0,31.1,23.8,10.9,0000.0,0007.72,0004.16,0003.96
2023-01-28 12:04:00,,0816.4,5.00,0.00,22.1,20.4,00.0,31.1,23.8,10.9,0000.0,0007.69,0004.11,0003.92
2023-01-28 12:05:00,,0816.5,5.01,0.00,22.1,20.4,00.0,31.1,23.8,10.9,0000.0,0007.69,0004.08,0003.91
2023-01-28 12:06:00,,0816.5,4.99,0.00,22.1,20.5,00.0,31.1,23.8,10.8,0000.0,0007.82,0004.07,0003.89
2023-01-28 12:07:00,,0816.6,5.01,0.00,22.1,20.5,00.0,31.0,23.8,10.8,0000.0,0008.09,0004.07,0003.88
2023-01-28 12:08:00,,0816.5,4.98,0.00,22.1,20.4,00.0,31.0,23.8,10.8,0000.0,0008.04,0004.04,0003.87
2023-01-28 12:09:00,,0816.5,5.03,0.00,22.0,20.3,00.0,31.0,23.7,10.9,0000.0,0008.03,0004.04,0003.86
2023-01-28 12:10:00,,0816.6,4.98,0.00,22.1,21.1,00.0,31.0,23.9,10.9,0000.0,0008.02,0004.03,0003.84
2023-01-28 12:11:00,,0816.4,5.01,0.00,22.2,22.1,00.0,31.0,24.1,10.8,0000.0,0008.06,0004.05,0003.84
2023-01-28 12:12:00,,0816.4,4.98,0.00,22.3,22.7,00.0,31.0,24.3,10.8,0000.0,0008.10,0004.09,0003.88
2023-01-28 12:13:00,,0816.4,5.00,0.00,22.3,22.2,00.0,31.0,24.2,10.7,0000.0,0008.13,0004.14,0003.93
2023-01-28 12:14:00,,0816.3,5.00,0.00,22.3,21.6,00.0,31.1,24.1,10.7,0000.0,0008.22,0004.21,0003.98
2023-01-28 12:15:00,,0816.4,5.00,0.00,22.2,21.0,00.0,31.1,23.9,10.8,0000.0,0008.28,0004.27,0004.02
2023-01-28 12:16:00,,0816.4,5.04,0.00,22.2,20.6,00.0,31.1,23.7,10.8,0000.0,0008.03,0004.30,0004.06
2023-01-28 12:17:00,,0816.4,5.00,0.00,22.1,20.3,00.0,31.1,23.7,10.8,0000.0,0007.83,0004.33,0004.09
2023-01-28 12:18:00,,0816.5,4.99,0.00,22.1,20.2,00.0,31.1,23.6,10.8,0000.0,0007.45,0004.34,0004.11
2023-01-28 12:19:00,,0816.5,5.04,0.00,22.0,20.2,00.0,31.0,23.6,10.8,0000.0,0007.74,0004.34,0004.12
2023-01-28 12:20:00,,0816.4,5.00,0.00,22.0,20.1,00.0,31.0,23.6,10.9,0000.0,0007.74,0004.33,0004.12
2023-01-28 12:21:00,,0816.4,5.00,0.00,22.0,20.1,00.0,31.0,23.6,10.9,0000.0,0007.76,0004.35,0004.14
2023-01-28 12:22:00,,0816.4,5.00,0.00,21.9,20.0,00.0,31.0,23.5,10.9,0000.0,0007.75,0004.36,0004.17
2023-01-28 12:23:00,,0816.4,5.00,0.00,21.9,19.9,00.0,30.9,23.5,10.9,0000.0,0007.88,0004.38,0004.17
2023-01-28 12:24:00,,0816.5,4.99,0.00,21.8,19.9,00.0,30.9,23.5,11.0,0000.0,0008.06,0004.38,0004.15
2023-01-28 12:25:00,,0816.5,5.00,0.00,21.8,20.0,00.0,30.9,23.5,11.0,0000.0,0007.99,0004.33,0004.12
2023-01-28 12:26:00,,0816.6,5.00,0.00,21.9,21.0,00.0,30.8,23.7,10.9,0000.0,0007.90,0004.28,0004.09
2023-01-28 12:27:00,,0816.5,4.99,0.00,22.0,22.1,00.0,30.8,24.0,10.9,0000.0,0007.86,0004.25,0004.06
2023-01-28 12:28:00,,0816.5,4.99,0.00,22.1,22.8,00.0,30.8,24.2,10.8,0000.0,0007.82,0004.21,0004.02
2023-01-28 12:29:00,,0816.6,4.99,0.00,22.2,22.4,00.0,30.9,24.2,10.8,0000.0,0007.78,0004.21,0004.00
2023-01-28 12:30:00,,0816.7,4.99,0.00,22.2,22.0,00.0,30.9,24.1,10.7,0000.0,0007.49,0004.22,0004.00
2023-01-28 12:31:00,,0816.7,5.00,0.00,22.2,21.6,00.0,31.0,24.1,10.7,0000.0,0007.52,0004.24,0004.01
2023-01-28 12:32:00,,0816.9,4.99,0.00,22.2,21.4,00.0,31.0,24.1,10.7,0000.0,0007.58,0004.26,0004.01
2023-01-28 12:33:00,,0816.5,5.03,0.00,22.2,21.2,00.0,31.0,24.0,10.7,0000.0,0007.62,0004.27,0004.02
2023-01-28 12:34:00,,0816.5,5.00,0.00,22.2,21.1,00.0,31.0,24.0,10.7,0000.0,0007.49,0004.26,0004.02
2023-01-28 12:35:00,,0816.5,5.00,0.00,22.2,21.0,00.0,31.0,24.0,10.7,0000.0,0007.28,0004.26,0004.03
2023-01-28 12:36:00,,0816.5,5.01,0.00,22.2,21.0,00.0,31.0,24.0,10.7,0000.0,0007.55,0004.28,0004.05
2023-01-28 12:37:00,,0816.6,5.00,0.00,22.2,20.9,00.0,31.0,24.0,10.7,0000.0,0007.69,0004.33,0004.08
2023-01-28 12:38:00,,0816.8,4.99,0.00,22.2,20.8,00.0,31.0,24.0,10.7,0000.0,0008.27,0004.35,0004.09
2023-01-28 12:39:00,,0816.6,4.99,0.00,22.2,20.7,00.0,31.0,23.9,10.8,0000.0,0008.32,0004.38,0004.11
2023-01-28 12:40:00,,0816.6,5.01,0.00,22.2,20.4,00.0,31.0,23.9,10.8,0000.0,0008.41,0004.42,0004.14
2023-01-28 12:41:00,,0816.6,5.00,0.00,22.1,20.2,00.0,31.0,23.8,10.9,0000.0,0008.48,0004.45,0004.17
2023-01-28 12:42:00,,0816.6,4.94,0.00,22.1,20.0,00.0,31.0,23.6,10.9,0000.0,0008.49,0004.45,0004.18
2023-01-28 12:43:00,,0816.7,5.04,0.00,22.0,19.8,00.0,31.0,23.6,10.9,0000.0,0008.45,0004.44,0004.18
2023-01-28 12:44:00,,0816.6,4.96,0.00,22.0,19.8,00.0,31.0,23.6,10.9,0000.0,0008.46,0004.42,0004.17
2023-01-28 12:45:00,,0817.1,5.05,0.00,22.0,20.6,00.0,30.9,23.7,10.9,0000.0,0008.46,0004.41,0004.16
2023-01-28 12:46:00,,0817.0,4.97,0.00,22.1,21.9,00.0,30.9,24.0,10.9,0000.0,0008.85,0004.42,0004.15
2023-01-28 12:47:00,,0817.1,5.01,0.00,22.2,22.7,00.0,30.9,24.2,10.8,0000.0,0008.90,0004.40,0004.14
2023-01-28 12:48:00,,0817.0,4.96,0.00,22.3,22.4,00.0,31.0,24.2,10.8,0000.0,0008.76,0004.35,0004.12
2023-01-28 12:49:00,,0816.8,5.00,0.00,22.3,21.9,00.0,31.0,24.1,10.8,0000.0,0008.23,0004.33,0004.10
2023-01-28 12:50:00,,0816.8,5.00,0.00,22.2,21.5,00.0,31.0,24.0,10.8,0000.0,0008.23,0004.30,0004.08
2023-01-28 12:51:00,,0817.0,4.99,0.00,22.2,21.1,00.0,31.0,24.0,10.8,0000.0,0008.25,0004.28,0004.05
2023-01-28 12:52:00,,0817.0,4.99,0.00,22.2,20.8,00.0,31.0,23.9,10.8,0000.0,0008.18,0004.24,0004.02
2023-01-28 12:53:00,,0816.9,5.01,0.00,22.1,20.6,00.0,31.0,23.8,10.9,0000.0,0008.14,0004.24,0004.02
2023-01-28 12:54:00,,0816.8,4.99,0.00,22.1,20.5,00.0,31.0,23.8,10.9,0000.0,0008.23,0004.24,0004.02
2023-01-28 12:55:00,,0816.8,5.00,0.00,22.1,20.4,00.0,31.0,23.8,10.9,0000.0,0008.20,0004.23,0004.02
2023-01-28 12:56:00,,0816.9,5.00,0.00,22.1,20.4,00.0,31.0,23.7,10.9,0000.0,0008.23,0004.25,0004.03
2023-01-28 12:57:00,,0816.8,5.00,0.00,22.0,20.3,00.0,31.0,23.7,10.9,0000.0,0007.99,0004.23,0004.00
2023-01-28 12:58:00,,0816.9,5.02,0.00,22.0,20.3,00.0,31.0,23.7,10.9,0000.0,0007.56,0004.24,0004.00
2023-01-28 12:59:00,,0816.8,4.99,0.00,22.0,20.2,00.0,31.0,23.6,10.9,0000.0,0007.60,0004.26,0004.02
